CAPE
418 140 23 4 0 7 406 315 439 300 652 791 586 667 535 711 768 687 1316 1643 1389 2319 1426 1502 1207 923 1604 836 89 298 1346 1749 884 859 2 0 0 0 2 123 179 947 1383
769 310 186 105 83 107 372 492 459 485 475 559 824 705 739 703 644 719 809 1436 1417 1831 1405 1314 1504 733 659 1 0 974 1349 797 1259 1523 334 112 10 0 0 0 2 1448 876
876 550 356 201 211 315 414 764 772 929 480 761 874 1073 1089 875 872 649 908 959 963 1300 1703 2284 868 2216 938 104 398 397 1497 1240 815 1328 1305 317 2 0 0 0 0 1010 711
835 839 461 339 290 426 802 992 1043 1385 1138 853 1309 854 884 881 659 797 522 627 1226 1323 1650 2248 2361 2415 2044 1269 516 222 1183 1580 948 874 1109 1000 56 0 0 0 0 105 921
502 773 571 463 370 386 811 1171 1336 1546 1580 1390 1416 1639 1173 1156 775 726 653 596 1391 1514 1927 2041 2540 2648 1742 1102 265 776 1156 951 1683 1056 939 200 1760 351 1073 494 119 215 1208
365 558 816 546 477 528 597 996 1582 1498 1731 1984 1286 1389 1848 959 1150 791 705 621 1012 1071 1151 1872 2710 2701 2606 1168 166 0 954 983 954 1532 1566 1328 647 1310 1473 1164 1063 1086 1064
2 483 723 664 583 554 587 730 1480 1654 1908 1908 2314 1503 1346 2340 985 1078 1035 570 907 1399 2254 1597 2886 2660 2493 1789 1226 570 1729 1645 1237 1428 1878 1795 1486 809 738 988 894 1106 1255
46 95 518 865 616 539 544 527 1195 1585 1647 2048 2046 2688 1895 1557 2595 1236 1157 364 478 1231 1582 1569 2433 2512 1388 3 503 2107 2094 2257 2050 1492 1465 1544 1711 2005 689 558 1203 876 1133
388 372 433 667 749 620 595 495 659 1458 1646 1731 2085 2090 2705 2039 1838 1542 1416 708 867 1520 2482 1417 354 192 2696 2815 2752 2119 1995 1940 2029 2052 1606 1948 1673 1752 0 0 17 1333 750
460 521 593 763 778 788 643 563 453 1282 1579 1713 1982 2272 2413 2676 2252 1945 1848 1092 513 1280 1926 1086 632 1048 490 2613 1879 2140 2229 1873 1748 2369 2223 1976 1651 1326 692 40 491 1571 1321
495 610 757 713 800 753 870 786 655 983 1481 1672 2085 2300 2525 2810 2679 2603 2009 1581 811 1102 2565 1704 609 2 204 2233 2094 1848 1818 1574 1721 1874 1737 1268 998 658 1055 1393 1058 1098 1369
556 987 1089 926 834 776 827 932 947 789 1365 1591 1924 1966 2440 2531 2865 2358 1989 1601 1629 2023 2171 2896 2553 1981 2381 2278 2256 2081 1918 1773 2051 1752 1803 1126 231 654 1268 856 641 603 450
1459 1410 1332 1457 1248 975 1440 1335 1544 1406 1664 2056 1610 1985 2073 2126 2057 2122 2147 1885 1955 2198 2533 2495 2663 1801 1627 1541 1822 2057 1759 1672 1796 1643 1426 1300 1140 1110 999 703 530 428 387
1596 1481 1864 1894 1870 1992 1797 1742 1428 1063 804 872 901 789 593 485 338 414 731 1128 1283 1321 1284 1348 1581 1280 1281 1037 1057 1162 1092 967 811 837 828 773 752 692 653 555 191 106 210
1985 2181 2239 2110 2129 1922 1795 1410 1165 818 360 291 338 262 79 6 8 149 31 85 181 182 278 479 815 543 449 182 298 104 126 172 192 195 224 190 10 0 0 27 0 0 0
2260 2449 2490 2491 2490 2260 1288 1209 709 1033 586 544 416 275 29 0 1 20 1 149 176 43 73 153 93 150 0 0 0 0 0 0 0 11 15 9 0 0 0 0 0 0 0
2706 2371 2092 1660 1899 2326 2295 1801 1371 1058 649 415 273 118 55 10 0 44 64 5 17 15 110 187 166 82 0 0 0 0 0 0 0 0 20 20 3 0 11 0 0 0 0
2334 1666 1350 1309 1701 1731 1874 1755 1230 905 558 381 226 22 48 20 0 5 36 96 62 27 25 48 27 10 0 0 0 0 0 0 0 0 0 0 0 0 0 0 0 0 0
1805 1416 1172 1265 1482 1512 1582 1152 941 643 569 539 539 413 364 332 223 195 67 34 43 61 3 3 0 7 4 0 0 0 0 0 0 0 0 0 0 0 0 0 0 0 0
1829 1565 1139 1057 1197 1492 1254 991 930 740 385 229 188 256 271 305 187 147 47 3 1 3 0 0 0 0 0 0 0 0 0 0 0 0 0 0 0 0 0 0 0 0 0
2230 1835 1402 1035 1068 1245 1520 1061 542 198 87 77 53 42 37 41 33 23 8 4 0 0 0 0 0 0 0 0 0 0 0 0 0 0 0 0 0 0 0 0 0 0 0
1995 1529 1421 1387 1479 1059 677 565 307 163 91 56 25 7 3 2 1 0 0 0 0 0 0 0 0 0 6 3 0 0 0 0 0 0 0 0 0 0 0 0 0 0 0
1411 970 1033 890 692 548 491 374 290 255 218 152 68 11 0 0 0 0 0 0 0 0 0 0 0 1 13 21 0 0 0 0 0 0 0 0 0 0 0 0 0 0 0
597 417 503 447 532 466 383 385 358 320 270 147 18 0 0 0 0 0 0 0 0 0 0 0 0 0 16 12 0 0 0 0 0 0 0 0 0 0 0 0 0 0 1
616 556 543 407 358 160 184 280 265 193 62 0 0 0 0 0 0 0 0 0 0 0 0 0 0 0 0 0 0 0 0 0 0 0 0 0 0 0 0 10 4 0 0
389 380 336 359 303 171 95 36 10 0 0 0 0 0 0 0 0 0 0 0 0 0 0 0 0 0 0 0 0 0 0 0 0 0 0 0 0 16 8 0 0 1 1
CIN
-107 -194 -272 -284 0 -316 -195 -227 -152 -178 -76 -72 -103 -72 -83 -33 -16 -14 -12 -15 -8 -2 -16 -23 -16 -35 -38 -112 -303 -131 -49 -11 -17 -51 -43 0 0 -2 -110 -286 -82 -12 -24
-56 -147 -228 -237 -247 -280 -212 -198 -179 -164 -153 -113 -71 -62 -38 -22 -23 -16 -13 -8 -9 -6 -16 -22 -23 -59 -102 -26 0 -42 -12 -29 -25 -8 -118 -70 -136 0 0 0 0 -20 -45
-47 -107 -176 -211 -227 -236 -244 -193 -172 -132 -174 -96 -58 -9 -2 -15 -17 -34 -11 -23 -21 -17 -8 -5 -19 -4 -73 -137 -99 -118 -19 -14 -57 -46 -8 -37 -21 0 0 0 0 -28 -20
-39 -72 -150 -216 -207 -216 -197 -166 -145 -100 -107 -102 -25 -53 -29 -29 -40 -20 -68 -57 -12 -15 -15 -4 -3 -2 -8 -38 -102 -123 -15 -9 -11 -31 -45 -43 -27 0 0 0 0 -165 -14
-36 -38 -120 -199 -202 -196 -162 -130 -122 -77 -66 -77 -51 -8 -30 -7 -36 -36 -52 -71 -7 -18 -8 -4 -4 -4 -19 -43 -112 -46 -36 -23 -14 -14 -30 -72 -16 -98 -8 -64 -108 -131 -46
-12 -25 -53 -143 -206 -157 -151 -120 -112 -108 -60 -46 -86 -52 -4 -59 -12 -31 -39 -54 -17 -24 -35 -9 -4 -6 -6 -55 -120 0 -101 -25 -36 -27 -15 -9 -16 -2 -6 -7 -34 -28 -43
-76 -16 -22 -94 -160 -177 -151 -112 -90 -106 -68 -53 -50 -81 -68 -17 -49 -19 -14 -47 -8 -16 -21 -23 -7 -8 -12 -29 -39 -144 -25 -28 -36 -30 -20 -18 -9 -9 -11 -9 -7 -9 -6
-86 -51 -14 -34 -107 -140 -150 -149 -84 -101 -87 -73 -68 -53 -81 -63 -26 -29 -24 -87 -47 -11 -5 -21 -6 -3 -44 -12 -127 -11 -13 -15 -33 -42 -42 -34 -35 -20 -88 -89 -18 -16 -19
-30 -31 -21 -16 -44 -121 -131 -141 -107 -82 -89 -89 -99 -88 -62 -86 -56 -51 -27 -52 -43 -9 -28 -60 -177 -103 -3 -9 -2 -14 -14 -20 -15 -24 -34 -22 -36 -39 0 0 -218 -15 -26
-48 -43 -47 -37 -13 -48 -88 -109 -113 -61 -66 -94 -105 -104 -83 -75 -66 -38 -19 -48 -70 -23 -16 -67 -156 -36 -112 -9 -12 -5 -2 -5 -12 -7 -8 -5 -24 -25 -83 -154 -118 -11 -17
-38 -33 -33 -50 -40 -13 -11 -36 -37 -24 -64 -73 -85 -87 -75 -53 -57 -19 -21 -27 -58 -36 -6 -35 -99 -11 -75 -15 -7 -12 -15 -13 -21 -15 -12 -11 -52 -94 -23 -14 -34 -47 -26
-31 -46 -56 -47 -62 -42 -5 -5 -7 -8 -63 -67 -57 -70 -63 -29 -2 -21 -24 -26 -22 -15 -14 -5 -28 -53 -16 -6 -5 -10 -9 -16 -13 -20 -9 -41 -184 -30 -19 -60 -75 -99 -122
-91 -120 -81 -71 -47 -53 -32 -47 -92 -162 -126 -91 -80 -57 -46 -47 -20 -5 -3 -11 -6 -6 -6 -3 -5 -13 -4 -6 -3 -8 -6 -5 -4 -7 -27 -27 -41 -24 -43 -85 -109 -108 -104
-101 -113 -130 -119 -171 -167 -184 -215 -260 -337 -321 -278 -223 -212 -168 -137 -48 -24 -33 -39 -22 -18 -28 -14 -12 -16 -15 -15 -29 -21 -17 -21 -20 -20 -19 -34 -42 -59 -54 -73 -183 -194 -146
-107 -112 -150 -141 -171 -172 -239 -261 -348 -403 -500 -437 -388 -321 -269 -24 -4 -125 -23 -97 -141 -200 -148 -79 -35 -66 -87 -197 -126 -176 -152 -120 -101 -115 -103 -112 -308 0 0 -48 -14 0 0
-102 -85 -110 -118 -125 -106 -244 -311 -429 -336 -409 -365 -310 -328 -441 -59 -95 -238 -34 -115 -141 -251 -184 -188 -105 -98 0 0 0 0 0 0 0 -217 -228 -257 0 0 0 0 0 0 0
-139 -211 -220 -280 -187 -119 -111 -197 -247 -259 -346 -333 -399 -411 -452 -591 -51 -378 -489 -308 -368 -172 -91 -36 -42 -87 -75 0 0 0 0 0 0 0 -180 -177 -46 0 -281 0 0 0 0
-188 -318 -350 -369 -221 -167 -83 -119 -205 -206 -256 -296 -327 -531 -492 -534 0 -245 -360 -219 -215 -175 -222 -160 -186 -155 0 0 0 0 0 0 0 0 0 0 0 -104 0 0 0 0 0
-173 -237 -360 -302 -258 -164 -122 -166 -201 -217 -176 -148 -107 -142 -161 -167 -207 -196 -222 -227 -184 -178 -232 -192 -25 -127 -138 0 0 0 0 0 0 0 0 0 0 0 0 0 0 0 0
-176 -248 -297 -305 -211 -120 -141 -156 -136 -128 -198 -260 -275 -208 -175 -142 -198 -198 -249 -220 -136 -273 0 0 0 0 0 0 0 0 0 0 0 0 0 0 0 0 0 0 0 0 0
-111 -144 -180 -195 -157 -110 -49 -88 -199 -277 -333 -321 -295 -304 -339 -331 -293 -252 -292 -301 0 0 0 0 0 0 0 0 0 0 0 0 0 0 0 0 0 0 0 0 0 0 0
-22 -52 -59 -74 -29 -80 -180 -204 -227 -235 -277 -314 -382 -408 -120 -116 -125 -40 0 0 0 0 0 0 0 0 -10 -10 0 0 0 0 0 0 0 0 0 0 0 0 0 0 0
-5 -55 -68 -104 -85 -132 -160 -153 -135 -143 -141 -167 -215 -272 0 0 0 0 0 0 0 0 0 0 0 0 -15 -29 0 0 0 0 0 0 0 0 0 0 0 0 0 0 0
-70 -130 -111 -102 -81 -87 -54 -35 -55 -54 -60 -122 -164 0 0 0 0 0 0 0 0 0 0 0 0 0 -19 -30 0 0 0 0 0 0 0 0 0 0 0 0 0 -2 -11
-31 -48 -52 -51 -73 -74 -155 -78 -88 -40 -154 0 0 0 0 0 0 0 0 0 0 0 0 0 0 0 0 0 0 0 0 0 0 0 0 0 0 0 0 -6 -11 0 0
-97 -88 -97 -87 -74 -85 -26 -138 -54 0 0 0 0 0 0 0 0 0 0 0 0 0 0 0 0 0 0 0 0 0 0 0 0 0 0 0 0 -6 -15 0 0 -2 -1
Wind_Speed
14 16 15 15 15 11 7 8 7 5 4 3 2 1 0 1 2 5 4 5 5 5 11 17 11 15 22 15 24 7 12 5 10 13 15 24 25 22 23 23 17 15 14
13 15 16 15 15 15 12 8 8 5 5 4 4 1 1 1 2 3 3 3 3 5 5 3 10 5 4 7 17 26 21 24 24 17 17 16 15 11 24 29 33 25 14
12 14 15 15 15 15 15 12 10 8 8 6 4 1 3 1 6 2 4 2 2 4 4 4 10 7 5 9 12 16 4 7 19 21 14 13 9 15 14 12 17 3 11
12 12 13 14 15 14 15 15 12 9 9 14 4 7 2 3 1 6 2 1 3 3 11 3 4 9 9 7 8 6 7 9 10 13 15 16 10 13 15 17 9 21 11
10 11 12 12 13 14 13 13 15 11 9 11 12 5 7 2 5 1 5 3 4 3 6 6 3 3 3 6 5 8 9 10 14 16 15 10 8 9 12 10 9 16 19
6 9 11 11 12 12 13 13 13 15 13 10 13 14 4 11 6 1 7 6 4 4 9 7 3 4 4 10 11 14 8 12 20 21 19 16 13 15 10 9 5 9 10
11 6 8 11 12 13 14 15 14 13 14 12 12 14 16 6 12 4 5 8 2 2 6 3 2 5 5 14 10 3 2 14 16 20 21 23 27 10 9 16 22 18 15
10 9 6 9 12 13 14 14 14 14 15 15 14 11 12 10 7 6 8 7 9 21 4 6 2 5 7 8 12 8 9 12 16 17 18 23 29 26 22 18 16 23 21
13 15 15 6 11 12 13 13 11 14 13 15 14 12 8 9 9 9 9 9 13 15 9 7 11 11 10 3 3 4 9 14 17 15 16 21 29 28 20 20 26 20 19
12 12 14 13 5 10 11 11 13 14 14 11 11 10 10 12 11 12 13 11 13 14 9 6 2 5 14 14 9 13 14 12 16 14 16 20 28 29 22 8 24 16 17
11 11 13 11 8 4 10 11 13 11 13 11 10 10 10 14 16 22 16 14 14 19 14 13 13 12 15 16 22 20 21 18 17 17 20 21 25 31 30 22 24 24 23
12 11 14 14 8 6 3 8 7 7 12 11 6 9 7 13 20 19 17 20 23 26 23 19 19 20 20 22 20 21 21 20 20 21 20 18 19 32 28 29 28 26 27
12 11 12 14 15 9 12 5 8 7 2 4 7 8 20 12 19 22 25 21 22 27 28 24 24 23 25 24 24 22 23 22 22 21 20 20 19 19 23 27 28 28 29
13 10 11 12 13 12 10 10 10 10 9 10 11 14 21 28 42 37 22 21 20 21 24 24 23 22 21 18 16 18 20 18 20 23 23 22 21 20 22 23 25 28 30
12 10 11 11 12 11 12 10 11 11 10 10 11 13 16 34 25 17 16 19 16 16 18 21 23 22 18 20 20 22 23 25 26 24 25 24 25 26 25 26 28 30 33
9 12 11 12 14 15 11 10 10 10 9 10 11 11 11 18 7 16 7 17 16 19 20 23 32 25 20 22 23 24 26 26 26 26 26 26 29 25 24 25 27 28 31
10 9 12 13 13 13 10 10 11 10 10 10 12 13 14 14 11 12 16 17 15 12 17 11 9 21 22 25 26 25 26 25 26 25 26 25 25 26 25 25 28 30 31
10 11 9 9 11 10 9 8 9 9 9 11 13 15 13 11 9 12 12 12 13 11 18 19 19 20 18 20 23 24 25 25 27 22 27 29 29 28 26 27 31 31 32
7 9 8 9 9 7 6 7 9 9 9 12 14 14 14 14 15 14 16 15 16 17 19 20 21 20 17 16 23 25 26 27 23 20 23 25 27 25 26 30 32 33 35
7 8 8 8 7 6 5 6 7 9 11 13 14 16 17 16 16 15 17 18 19 18 19 20 18 19 18 18 22 25 26 28 26 24 22 22 18 23 27 29 34 38 37
6 4 4 5 3 4 5 7 8 9 10 12 14 14 15 16 16 16 17 17 17 18 15 19 19 18 18 17 21 24 26 28 29 28 28 22 26 30 32 33 34 36 35
1 2 3 3 2 4 5 7 8 9 10 11 13 14 16 16 16 17 17 18 17 18 17 18 21 19 14 15 17 20 23 25 27 28 28 31 36 38 40 39 39 39 39
3 3 4 4 4 5 6 8 9 9 10 12 13 14 15 16 17 17 18 18 15 18 20 21 23 24 17 18 16 19 23 25 26 29 32 36 39 41 40 38 38 37 33
1 3 3 4 4 6 8 8 9 11 12 13 14 14 15 15 17 17 16 21 22 24 26 26 26 25 22 21 24 25 28 30 31 34 37 39 39 37 35 34 34 29 29
1 2 2 3 5 6 9 11 12 12 15 15 15 15 15 17 17 17 18 19 19 22 23 24 25 26 26 25 26 29 31 32 32 36 36 36 34 33 31 27 31 32 35
2 2 2 5 6 6 9 10 11 13 13 14 15 18 19 19 19 22 20 18 19 18 19 19 21 21 21 22 25 27 29 32 33 35 36 34 35 35 33 34 35 34 34
Wind_Direction
150 149 144 141 138 133 136 145 155 154 141 137 177 286 131 91 116 144 46 46 24 44 353 321 0 339 323 346 271 42 183 60 157 4 11 306 286 277 298 282 256 110 90
152 150 148 149 145 139 140 142 152 156 161 156 150 177 308 123 115 118 124 104 59 17 19 72 347 22 84 120 323 275 303 246 293 332 6 21 256 357 305 248 265 172 84
144 152 153 155 154 148 146 146 152 154 162 159 163 195 306 318 322 343 1 49 112 150 155 13 347 12 63 3 0 221 123 18 320 274 359 24 87 23 54 198 232 328 89
149 153 156 159 165 159 152 150 156 156 158 165 163 166 188 306 323 340 112 37 131 131 177 129 2 346 350 46 26 139 17 4 2 360 346 341 34 20 17 337 162 221 141
155 161 162 163 166 168 163 157 159 166 166 168 169 165 172 162 167 352 166 151 5 139 158 164 122 36 101 30 70 9 5 353 342 343 353 4 93 84 28 45 109 173 193
152 164 169 168 170 172 172 169 166 171 176 179 181 180 182 179 187 248 321 335 357 169 174 166 102 48 36 348 335 326 2 338 321 318 328 341 352 348 7 16 66 125 119
348 169 169 176 173 174 174 175 174 177 179 188 190 192 192 207 190 243 298 318 298 177 177 152 93 35 6 339 350 103 8 338 338 323 321 308 299 357 354 321 290 313 332
8 6 173 175 179 178 180 181 180 184 183 188 200 204 205 222 233 238 289 300 302 307 312 196 353 360 3 359 211 342 341 339 339 330 321 309 291 302 306 292 316 290 309
353 345 340 180 179 181 182 186 190 191 193 194 198 212 236 233 241 257 269 275 299 315 335 298 358 208 341 6 317 336 330 333 332 332 319 307 289 301 333 340 248 303 318
356 354 342 334 182 181 182 187 194 192 194 202 207 229 249 268 265 277 283 275 281 290 310 331 347 180 322 320 319 328 332 333 329 327 317 310 296 294 321 89 221 327 331
355 356 348 347 336 189 184 185 190 193 191 195 208 217 249 273 279 280 281 284 279 279 297 301 303 306 313 312 307 317 320 328 325 323 314 315 310 296 295 307 308 315 326
353 358 339 338 1 339 195 182 181 207 193 194 221 234 239 290 280 271 276 281 281 277 284 294 297 301 303 305 312 314 316 316 314 311 314 318 324 267 299 300 306 321 321
344 345 346 335 337 356 344 9 354 354 338 329 331 326 296 305 281 274 275 278 281 278 280 288 293 298 298 303 303 312 313 314 316 317 314 312 316 318 314 312 312 315 316
338 345 345 339 340 351 358 360 358 351 349 342 341 334 332 326 284 281 275 281 288 291 289 293 300 299 306 312 327 325 322 328 319 312 310 309 309 312 312 313 315 316 313
325 339 341 341 334 332 336 337 343 343 347 352 10 24 22 359 320 282 301 299 303 303 308 304 299 301 311 313 315 315 316 316 312 312 308 306 305 304 306 307 310 311 310
319 328 350 342 329 325 329 339 350 350 1 4 5 9 20 25 26 20 10 347 310 303 312 315 287 299 314 313 313 316 311 315 312 310 306 308 301 308 308 308 310 315 312
318 327 329 334 332 334 346 343 350 2 1 6 0 10 13 17 42 46 23 355 0 342 323 344 346 310 318 311 307 311 313 314 312 315 308 310 307 307 309 313 312 313 313
332 338 330 338 335 340 340 359 5 9 15 5 0 356 11 25 38 11 3 18 27 22 331 327 328 322 331 323 316 315 313 315 315 322 306 300 302 304 305 307 306 308 309
318 325 338 325 338 344 1 4 6 9 7 5 6 6 15 18 19 22 6 7 6 354 342 326 322 323 336 339 321 314 313 317 332 333 317 310 303 308 305 307 305 307 305
339 339 330 326 326 343 27 12 5 4 3 5 6 6 9 10 10 19 355 358 348 350 336 323 334 328 333 333 327 321 318 315 324 329 331 330 342 316 313 310 304 301 307
314 343 339 323 346 9 10 16 19 5 17 11 8 10 11 9 7 6 3 2 358 352 358 333 335 335 334 333 328 326 323 319 319 320 320 327 321 313 310 309 309 308 311
284 295 2 23 354 14 29 12 6 8 8 10 9 5 6 4 0 357 357 353 354 347 343 337 332 333 334 335 335 334 331 330 325 320 320 316 310 308 306 307 307 306 307
310 34 11 8 5 13 12 357 1 2 4 5 2 3 1 356 353 353 351 347 353 348 340 334 328 328 332 329 339 336 333 330 325 323 318 314 311 309 309 309 309 310 314
213 81 45 356 1 20 15 4 1 346 349 353 354 356 357 354 355 351 355 345 343 337 331 328 328 328 337 336 332 329 326 324 323 321 318 315 314 313 314 313 317 321 322
300 70 55 35 359 3 19 320 359 337 335 346 349 346 348 347 344 351 348 345 345 341 335 330 326 322 321 325 327 325 322 323 323 321 320 319 319 318 319 322 322 321 319
275 19 6 355 5 6 343 7 360 341 341 350 349 348 344 341 343 338 340 342 341 344 345 345 342 339 337 335 332 328 326 324 323 320 319 319 319 320 321 320 322 325 326